Regional Weather Roundup
Issued by NWS San Angelo, TX

Home | Current Version | Previous Version | Graphics & Text | Print | Product List | Glossary Off
Versions: 1 2 3 4 5 6 7 8 9 10 11 12 13 14 15 16 17 18 19 20 21 22 23 24 25 26 27 28 29 30 31 32 33 34 35 36 37 38 39 40 41 42 43 44 45 46 47 48 49 50

000
ASUS44 KSJT 280210
RWRSJT
WEST CENTRAL TEXAS REGIONAL WEATHER ROUNDUP
NATIONAL WEATHER SERVICE SAN ANGELO TX
900 PM CDT MON APR 27 2015

NOTE: "FAIR" INDICATES FEW OR NO CLOUDS BELOW 12,000 FEET WITH NO
SIGNIFICANT WEATHER AND/OR OBSTRUCTIONS TO VISIBILITY.

TXZ049-054-064>066-071>073-076>078-098-099-113-114-127-128-139-140-
154-155-168>170-280300
...LOCATIONS ACROSS WEST CENTRAL TEXAS...

CITY           SKY/WX    TMP DP  RH WIND       PRES   REMARKS
SAN ANGELO     MOCLDY    61  50  67 NW8       29.88R
ABILENE        PTCLDY    62  52  69 N14       29.88R
DYESS AFB      MOCLDY    61  53  74 NW18G25   29.88R
JUNCTION       PTCLDY    72  45  37 N14       29.82R
SWEETWATER     CLOUDY    55  49  82 NW15      29.95R
BROWNWOOD      PTCLDY    61  55  82 NE3       29.83R
COLEMAN        PTCLDY    63  55  77 NW3       29.85R
SONORA         PTCLDY    63  46  55 N14G20    29.93R
OZONA          FAIR      61  43  51 N8        29.95R
BRADY          CLEAR     63  54  72 N6        29.84R
$$

TEXAS PANHANDLE/OKLAHOMA PANHANDLE

CITY           SKY/WX    TMP DP  RH WIND       PRES   REMARKS
AMARILLO       LGT RAIN  40  39  97 N25G32    30.12R FOG     WCI  29
BORGER         LGT RAIN  42  39  89 NE22G30   30.14R WCI  33
CANADIAN       LGT RAIN  45  43  94 NE10      30.12R WCI  39
DALHART        CLOUDY    42  37  82 NE17G28   30.17R WCI  34
DUMAS          DRIZZLE   39  38  97 N13       30.15R WCI  32
GUYMON         NOT AVBL
HEREFORD       CLOUDY    40  40  99 MISG      30.13R
PAMPA          LGT RAIN  39  38  94 NE20G30   30.11R WCI  30
PERRYTON       CLOUDY    42  40  91 N7        30.13R WCI  38
$$

SOUTHERN PANHANDLE/SOUTH PLAINS/ROLLING PLAINS

CITY           SKY/WX    TMP DP  RH WIND       PRES   REMARKS
LUBBOCK        LGT RAIN  43  41  93 N17G29    30.01R WCI  35
SNYDER         CLOUDY    49  47  93 NW16      29.96R
CHILDRESS      HVY RAIN  47  45  93 NE13G24   30.02R FOG
SEMINOLE       CLOUDY    42  37  80 N26G33    30.07R WCI  32
$$

PERMIAN BASIN

CITY           SKY/WX    TMP DP  RH WIND       PRES   REMARKS
MIDLAND        CLOUDY    49  38  65 NW26G33   30.03R
ODESSA         CLOUDY    49  36  61 N22G31    30.05R
WINK           MOCLDY    50  32  50 N17G25    30.08R
$$

FAR WEST/SOUTHWEST MOUNTAINS/TRANS PECOS

CITY           SKY/WX    TMP DP  RH WIND       PRES   REMARKS
ALPINE         CLEAR     49  35  58 N15G23    30.15R
DRYDEN           N/A     69  40  34 N26G43    29.88R
EL PASO        PTCLDY    57  35  43 E18       30.05R
FORT STOCKTON  MOCLDY    54  37  52 N25G31    30.06R
GUADALUPE PASS MOCLDY    43  33  68 NE35      30.10R WCI  32
MARFA          CLEAR     48  34  57 N25G32    30.07R
PECOS          CLOUDY    54  36  49 NW31G37   30.09R
$$

DALLAS/FORT WORTH METROPLEX

CITY           SKY/WX    TMP DP  RH WIND       PRES   REMARKS
DFW AIRPORT    CLOUDY    59  57  93 N22G28    29.83R
FTW MEACHAM    PTCLDY    58  56  93 N18       29.82R
DAL-EXECUTIVE  MOCLDY    60  59  96 N15       29.81R
GRAND PRAIRIE  CLOUDY    60  60 100 N17G26    29.83R
ADDISON        NOT AVBL
MESQUITE       CLOUDY    60  59  96 N15G25    29.83R
LANCASTER      LGT RAIN  60  58  91 N10G17    29.81R
$$

NORTH CENTRAL TEXAS

CITY           SKY/WX    TMP DP  RH WIND       PRES   REMARKS
SHRMAN/DENISON CLOUDY    56  56  99 N13       29.91R
GAINESVILLE    PTCLDY    52  50  92 N14G22    29.92R
BRIDGEPORT     CLOUDY    57  57  98 N9        29.89R
DENTON         MOCLDY    55  54  96 N17G25    29.86R
WAXAHACHIE     CLOUDY    61  61 100 CALM      29.81R
GRANBURY       PTCLDY    63  58  86 N6        29.85R
$$

WESTERN NORTH TEXAS

CITY           SKY/WX    TMP DP  RH WIND       PRES   REMARKS
WICHITA FALLS  CLOUDY    53  49  86 NE18      29.93R
VERNON         CLOUDY    53  47  82 N12G17    29.96R
BRECKENRIDGE   PTCLDY    64  57  77 E9        29.84R
COMANCHE       LGT RAIN  62  58  84 CALM      29.83R
$$

CENTRAL AND SOUTH CENTRAL TEXAS

CITY           SKY/WX    TMP DP  RH WIND       PRES   REMARKS
AUSTIN/BERGSTM PTCLDY    68  60  75 N6        29.73R
WACO           PTCLDY    62  61  96 N7        29.79R
HILLSBORO      CLOUDY    63  59  89 N14       29.79R
TEMPLE         CLEAR     66  55  68 N13       29.78R
KILLEEN-GRAY   CLEAR     66  61  82 N16G22    29.79R
FORT HOOD      CLEAR     66  60  80 N13       29.78R
GEORGETOWN     CLEAR     72  55  56 N6        29.75R
LAGO VISTA     FAIR      71  53  53 N6        29.77R
SAN MARCOS     CLEAR     72  59  64 N6        29.75R
NEW BRAUNFELS  MOCLDY    72  65  78 N7        29.73R
RANDOLPH AFB   CLEAR     73  61  65 N6        29.74R
SAN ANTONIO    PTCLDY    77  60  55 NE5       29.75R
STINSON        CLEAR     76  63  64 E8        29.72R
PLEASANTON     NOT AVBL
LA GRANGE      CLEAR     75  68  77 CALM      29.71R
GIDDINGS       CLEAR     75  64  68 N3        29.76R
$$

EAST TEXAS

CITY           SKY/WX    TMP DP  RH WIND       PRES   REMARKS
PARIS          CLOUDY    61  45  55 MISG      29.85R
CLARKSVILLE    NOT AVBL
TYLER          CLOUDY    69  55  60 E13       29.76R
LONGVIEW       CLOUDY    68  53  58 E10       29.80R
PALESTINE      MOCLDY   N/A N/A N/A E6        29.77R
NACOGDOCHES    CLOUDY    66  57  72 E9        29.77R
$$

TEXAS HILL COUNTRY AND EDWARDS PLATEAU

CITY           SKY/WX    TMP DP  RH WIND       PRES   REMARKS
LLANO          CLEAR     68  55  64 N5        29.81R
HORSESHOE BAY  FAIR      67  62  84 CALM      29.76R
KERRVILLE      PTCLDY    72  57  60 CALM      29.80R
FREDERICKSBRG  PTCLDY    65  56  73 CALM      29.80R
ROCKSPRINGS    CLEAR     70  39  32 NW7       29.85R
HONDO          PTCLDY    67  55  65 N9        29.76R
UVALDE         CLEAR     72  46  40 CALM      29.76R
DEL RIO        CLEAR     77  41  27 MISG      29.76R
$$

SOUTHEAST TEXAS

CITY           SKY/WX    TMP DP  RH WIND       PRES   REMARKS
COLLEGE STN    MOCLDY    72  66  81 E7        29.74R
CALDWELL       CLEAR     72  72 100 E3        29.77R
CROCKETT       NOT AVBL
BRENHAM        PTCLDY    75  69  82 CALM      29.74R
HUNTSVILLE     MOCLDY    70  64  81 CALM      29.76R
CONROE         MOCLDY    69  63  81 E3        29.74R
HOUSTON BUSH   PTCLDY    69  65  86 E8        29.72R
HOUSTON HOBBY  MOCLDY    71  66  84 NE8       29.71R
PERLAND        MOCLDY    72  66  81 NE10      29.72R
WHARTON        CLEAR     70  67  88 NE6       29.72R
$$

THE UPPER TEXAS COAST

CITY           SKY/WX    TMP DP  RH WIND       PRES   REMARKS
ORANGE         CLOUDY    67  64  89 NE7       29.75R
PORT ARTHUR    CLOUDY    69  66  90 NE8       29.73R
GALVESTON      CLOUDY    73  70  90 NE12      29.71R
ANGLETON       PTCLDY    70  67  90 NE5       29.70R
BAY CITY       PTCLDY    72  70  92 NE3       29.71R
$$

TEXAS COASTAL BEND, RIO GRANDE PLAINS DEEP SOUTH TEXAS

CITY           SKY/WX    TMP DP  RH WIND       PRES   REMARKS
VICTORIA       CLEAR     75  74  96 E5        29.70R
BEEVILLE       FAIR      76  65  67 N5        29.70R
ROCKPORT       CLEAR     77  71  82 E9        29.68R
PORT ARANSAS   CLEAR     74  70  88 NE12G17   29.68R
PORT LAVACA    PTCLDY    75  70  83 E8        29.70R
CORPUS CHRISTI PTCLDY    77  73  87 E8        29.69R
KINGSVILLE NAS PTCLDY    75  64  68 N5        29.69R
COTULLA        CLEAR     73  53  49 NE3       29.72R
LAREDO         CLEAR     78  50  37 NE7       29.75R
BROWNSVILLE    CLOUDY    79  69  71 N6        29.66R
PORT ISABEL    CLOUDY    77  73  87 N13       29.65R
HEBBRONVILLE     N/A     74  60  60 N5        29.73R
MCALLEN        PTCLDY    79  59  50 NW6       29.69R
WESLACO        MOCLDY    73  65  74 NW6       29.68R
FALFURRIAS     CLEAR     76  60  57 N5        29.69R
EDINBURG       PTCLDY    76  61  59 N5        29.68R
$$



USA.gov is the U.S. government's official web portal to all federal, state and local government web resources and services.